Simultaneous Nadir Overpasses (SNOs) Predictions

Prediction of SNOs between FY3D and TERRA Satellite Orbit:

Table of predicted SNOs for the next 14.0 days since TLE Epoch: 10/10/2020
Index Date (FY3D) Time (FY3D) Lat,Lon (FY3D) SZA (FY3D ) Date (TERRA) Time (TERRA) Lat,Lon (TERRA) SZA (TERRA ) Distance(km) Time Diff (sec)
1 10/11/2020 05:48:35 69.11, 92.18 76.23 10/11/2020 05:49:33 69.10, 92.25 76.22 2.70 58
2 10/11/2020 06:39:15 -68.96,-100.28 103.92 10/11/2020 06:39:04 -68.94,-100.33 103.93 2.57 11
3 10/11/2020 07:29:49 68.30, 67.90 75.47 10/11/2020 07:28:39 68.38, 66.63 75.51 52.74 70
4 10/13/2020 22:04:57 69.09,-151.87 77.22 10/13/2020 22:06:02 69.08,-151.90 77.21 1.25 65
5 10/13/2020 22:55:38 -68.98, 15.60 102.88 10/13/2020 22:55:32 -68.98, 15.61 102.89 0.45 6
6 10/13/2020 23:46:16 68.56,-176.51 76.72 10/13/2020 23:45:04 68.59,-177.24 76.73 29.77 72
7 10/16/2020 14:21:20 69.13, -36.01 78.24 10/16/2020 14:22:30 69.12, -35.97 78.24 1.87 70
8 10/16/2020 15:12:01 -69.01, 131.47 101.86 10/16/2020 15:12:00 -69.02, 131.53 101.86 2.46 1
9 10/16/2020 16:02:42 68.75, -60.86 77.90 10/16/2020 16:01:29 68.79, -61.11 77.92 10.83 73
10 10/19/2020 06:37:44 69.27, 79.71 79.36 10/19/2020 06:38:56 69.21, 80.02 79.30 14.62 72
11 10/19/2020 07:28:22 -68.99,-112.58 100.91 10/19/2020 07:28:28 -69.00,-112.61 100.91 1.46 6
12 10/19/2020 08:19:06 68.90, 54.86 79.02 10/19/2020 08:17:55 68.88, 54.88 78.99 2.70 71
13 10/21/2020 22:54:10 69.47,-164.66 80.51 10/21/2020 22:55:21 69.40,-163.84 80.46 33.04 71
14 10/21/2020 23:44:45 -69.03, 3.29 99.92 10/21/2020 23:44:56 -69.03, 3.30 99.92 0.63 11
15 10/22/2020 00:35:28 68.89, 170.79 79.96 10/22/2020 00:34:23 68.90, 170.79 79.97 2.00 65
